Time,TemperatureF,DewpointF,PressureIn,WindDirection,WindDirectionDegrees,WindSpeedMPH,WindSpeedGustMPH,Humidity,HourlyPrecipIn,Conditions,Clouds,dailyrainin,SoftwareType,DateUTC
2017-12-12 00:11:00,26.8,26.6,29.75,SE,135,7.3,-999.0,99,-99.99,,,0.00,,2017-12-12 05:11:00,
2017-12-12 00:26:00,27.0,26.8,29.74,ESE,112,2.7,-999.0,99,-99.99,,,0.00,,2017-12-12 05:26:00,
2017-12-12 00:57:00,27.3,27.1,29.73,SE,135,2.2,-999.0,99,-99.99,,,0.00,,2017-12-12 05:57:00,
2017-12-12 01:12:00,27.5,27.3,29.71,SSE,157,2.2,-999.0,99,-99.99,,,0.00,,2017-12-12 06:12:00,
2017-12-12 01:27:00,27.9,27.7,29.70,SSE,157,4.2,-999.0,99,-99.99,,,0.00,,2017-12-12 06:27:00,
2017-12-12 01:42:00,28.0,27.8,29.69,SSE,157,4.7,-999.0,99,-99.99,,,0.00,,2017-12-12 06:42:00,
2017-12-12 02:13:00,28.4,28.2,29.67,SSE,157,3.7,-999.0,99,-99.99,,,0.00,,2017-12-12 07:13:00,
2017-12-12 02:43:00,28.6,28.4,29.65,SSE,157,3.2,-999.0,99,-99.99,,,0.00,,2017-12-12 07:43:00,
2017-12-12 02:58:00,28.6,28.4,29.64,SSE,157,1.1,-999.0,99,-99.99,,,0.00,,2017-12-12 07:58:00,
2017-12-12 03:30:00,28.9,28.7,29.61,South,180,1.1,-999.0,99,-99.99,,,0.00,,2017-12-12 08:30:00,
2017-12-12 04:16:00,29.1,28.9,29.58,ESE,112,3.2,-999.0,99,-99.99,,,0.00,,2017-12-12 09:16:00,
2017-12-12 04:31:00,29.1,28.9,29.57,SSE,157,2.2,-999.0,99,-99.99,,,0.00,,2017-12-12 09:31:00,
2017-12-12 05:02:00,29.3,29.1,29.55,SSE,157,1.1,-999.0,99,-99.99,,,0.00,,2017-12-12 10:02:00,
2017-12-12 05:17:00,29.3,29.1,29.54,SSE,157,1.7,-999.0,99,-99.99,,,0.00,,2017-12-12 10:17:00,
2017-12-12 05:33:00,29.3,29.1,29.54,South,180,2.7,-999.0,99,-99.99,,,0.00,,2017-12-12 10:33:00,
2017-12-12 05:49:00,29.5,29.3,29.54,South,180,0.0,-999.0,99,-99.99,,,0.00,,2017-12-12 10:49:00,
2017-12-12 06:19:00,29.5,29.3,29.53,SSE,157,0.0,-999.0,99,-99.99,,,0.00,,2017-12-12 11:19:00,
2017-12-12 06:34:00,29.5,29.3,29.53,South,180,0.0,-999.0,99,-99.99,,,0.00,,2017-12-12 11:34:00,
2017-12-12 07:05:00,29.5,29.3,29.53,ESE,112,0.0,-999.0,99,-99.99,,,0.00,,2017-12-12 12:05:00,
2017-12-12 07:36:00,29.7,29.5,29.52,ESE,112,0.0,-999.0,99,-99.99,,,0.00,,2017-12-12 12:36:00,
2017-12-12 07:51:00,29.8,29.6,29.52,ESE,112,0.0,-999.0,99,-99.99,,,0.00,,2017-12-12 12:51:00,
2017-12-12 08:06:00,30.0,29.8,29.52,ESE,112,0.0,-999.0,99,-99.99,,,0.00,,2017-12-12 13:06:00,
2017-12-12 08:22:00,30.6,30.4,29.51,ESE,112,0.0,-999.0,99,-99.99,,,0.00,,2017-12-12 13:22:00,
2017-12-12 08:37:00,31.8,31.6,29.50,ESE,112,0.0,-999.0,99,-99.99,,,0.00,,2017-12-12 13:37:00,
2017-12-12 08:52:00,32.4,32.2,29.50,ESE,112,0.0,-999.0,99,-99.99,,,0.00,,2017-12-12 13:52:00,